Home > Weather > Waterbury > Past weeks

Flag for USA Past Weather in Waterbury, Connecticut, USA — Yesterday and Last 2 Weeks

Now
73 °F

Mild.


Feels Like: 76 °F
Forecast: 68 / 90 °F
Wind: 5 mph from South

Location: Oxford

Current Time: Jul 24, 2016 at 10:30:49 PM

Latest Report: Jul 24, 2016 at 9:55 PM


Visibility: 10 mi

Pressure: 30.03 "Hg

Humidity: 65%

Dew Point: 61 °F

Location of WaterburyLocation

Past Weather in Waterbury — Graph

°F

Waterbury Temperature Yesterday

Maximum temperature yesterday: 90 °F (at 1:50 PM)
Minimum temperature yesterday: 70 °F (at 11:55 PM)
Average temperature yesterday: 77 °F

High & Low Weather Summary for the Past Weeks

 TemperatureHumidityPressure
High91 °F (Jul 22, 3:50 PM)94% (Jul 12, 5:15 AM)30.27 "Hg (Jul 12, 5:15 AM)
Low54 °F (Jul 20, 4:35 AM)31% (Jul 23, 4:50 PM)29.81 "Hg (Jul 14, 6:00 PM)
Average71 °F71%30.03 "Hg
* Reported Jul 9 9:15 PM — Jul 24 9:35 PM, Waterbury, Weather by CustomWeather, © 2016

Note: Actual official high and low records may vary slightly from our data, if they occured in-between our weather recording intervals... More about our weather records

Advertising

Waterbury Weather History for the Previous 24 Hours

Scroll right to see more
 ConditionsComfort  
Time TempWeatherWind HumidityBarometerVisibility
9:35 PM
Sun, Jul 24
75 °FMild.5 mph61%30.02 "Hg10 mi
9:15 PM75 °FMild.3 mph61%30.01 "Hg10 mi
8:55 PM77 °FWarm.5 mph57%30.01 "Hg10 mi
7:50 PM81 °FPartly sunny.6 mph54%30.01 "Hg10 mi
6:50 PM84 °FPartly sunny.9 mph43%30.00 "Hg10 mi
5:50 PM88 °FPartly sunny.6 mph35%29.98 "Hg10 mi
4:50 PM88 °FPartly sunny.5 mph35%29.99 "Hg10 mi
3:50 PM84 °FPartly sunny.5 mph40%29.98 "Hg10 mi
2:50 PM86 °FPartly sunny.13 mph33%30.00 "Hg10 mi
1:50 PM84 °FPartly sunny.13 mph37%30.01 "Hg10 mi
12:50 PM84 °FPartly sunny.9 mph37%30.01 "Hg10 mi
11:50 AM82 °FScattered clouds.9 mph42%30.02 "Hg10 mi
10:52 AM81 °FScattered clouds.9 mph45%30.02 "Hg10 mi
9:55 AM79 °FScattered clouds.6 mph51%30.03 "Hg10 mi
8:52 AM75 °FScattered clouds.9 mph57%30.02 "Hg10 mi
7:55 AM72 °FScattered clouds.9 mph65%30.01 "Hg10 mi
6:45 AM64 °FPassing clouds.No wind78%30.00 "Hg10 mi
5:50 AM64 °FPassing clouds.5 mph73%29.99 "Hg10 mi
5:35 AM63 °FMild.3 mph77%29.97 "Hg10 mi
5:15 AM63 °FMild.5 mph73%29.97 "Hg10 mi
4:55 AM63 °FMild.3 mph73%29.96 "Hg10 mi
4:35 AM64 °FMild.3 mph73%29.96 "Hg10 mi
4:15 AM66 °FMild.No wind68%29.97 "Hg10 mi
3:55 AM66 °FMild.3 mph68%29.97 "Hg10 mi
3:35 AM68 °FMild.6 mph64%29.97 "Hg10 mi
3:15 AM66 °FMild.6 mph68%29.96 "Hg10 mi
2:55 AM66 °FMild.6 mph68%29.96 "Hg10 mi
2:35 AM70 °FMild.5 mph60%29.96 "Hg10 mi
2:15 AM70 °FMild.3 mph60%29.96 "Hg10 mi
1:55 AM68 °FMild.7 mph64%29.96 "Hg10 mi
1:35 AM66 °FMild.7 mph68%29.95 "Hg10 mi
1:15 AM70 °FMild.8 mph60%29.95 "Hg10 mi
12:55 AM70 °FMild.8 mph60%29.94 "Hg10 mi
12:35 AM70 °FMild.8 mph60%29.94 "Hg10 mi
12:15 AM70 °FMild.9 mph57%29.94 "Hg10 mi
11:55 PM
Sat, Jul 23
70 °FMild.8 mph57%29.93 "Hg10 mi
11:35 PM72 °FMild.8 mph53%29.93 "Hg10 mi
11:15 PM73 °FMild.8 mph50%29.92 "Hg10 mi
10:55 PM73 °FMild.7 mph50%29.93 "Hg10 mi
10:35 PM73 °FMild.8 mph50%29.93 "Hg10 mi
10:15 PM75 °FMild.7 mph50%29.91 "Hg10 mi
Weather by CustomWeather, © 2016

See weather overviewHow to use our weather pages